User: anonymous
Location: Stull Observatory
(42.2506°N, 77.7903°W)
Time: 07:58:37
(UTC-04:00)
Language:

Abrixas rocket - Orbit

View from above orbital plane
View from above orbital plane
View from above satellite
View from above satellite

Ground track
Ground track

The orbit data is extracted from the following two-line orbital elements,

1 25723U 99022C   14261.92515587  .00010383  00000-0  33744-3 0  7433
2 25723 048.4244 038.3620 0017955 300.9716 203.3629 15.32217970851525
Epoch (UTC): 18 September 2014 22:12:13
Eccentricity: 0.0017955
inclination: 48.4244°
perigee height: 457 km
apogee height: 481 km
right ascension of ascending node: 38.3620°
argument of perigee: 300.9716°
revolutions per day: 15.32217970
mean anomaly at epoch: 203.3629°
orbit number at epoch: 85152

The dashed part of the orbit path shows where the satellite is in the earth's shadow,  

DLR